Location: *
(50.9167°S, 179.4000°W)
Time: 20:15:07
(UTC+00:00)

USA 229 - Pass Details

Date: 03 March 2024
Orbit: 880 x 1331 km, 63.5° (Epoch: 15 April)

Event Time Altitude Azimuth Distance (km) Brightness Sun altitude
Rises 15:25:08 0° 225° (SW) 3,943 6.6 -18.9°
Reaches altitude 10° 15:27:57 10° 225° (SW) 2,914 5.9 -18.6°
Maximum altitude 15:34:47 89° 316° (NW) 994 3.5 -17.7°
Drops below altitude 10° 15:40:54 10° 41° (NE) 2,624 5.8 -16.9°
Sets 15:43:19 0° 41° (NE) 3,527 6.5 -16.6°
